| time (UTC) | temp F | wind direction | speed knots | gust knots | rain 1hr in | rain 24hr in | rain mn in | humidity % | barometer mb |
| 20260504120103 | 49 | 55 | 21.7 | 31.3 | 0.00 | 0.00 | 0.00 | 42 | 1006.9 |
| 20260504081527 | 50 | 293 | 4.3 | 6.1 | 0.00 | 0.00 | 0.00 | 44 | 1003.8 |
| 20260504044518 | 55 | 209 | 3.5 | 5.2 | 0.00 | 0.00 | 0.00 | 38 | 1004.0 |
| 20260504043105 | 55 | 360 | 1.7 | 3.5 | 0.00 | 0.00 | 0.00 | 36 | 1004.1 |
| 20260504041600 | 57 | 360 | 0.0 | 1.7 | 0.00 | 0.00 | 0.00 | 34 | 1004.0 |
| 20260504040042 | 58 | 360 | 4.3 | 7.8 | 0.00 | 0.00 | 0.00 | 33 | 1003.9 |
| 20260504034541 | 59 | 360 | 5.2 | 7.0 | 0.00 | 0.00 | 0.00 | 32 | 1003.9 |
| 20260504033026 | 59 | 298 | 2.6 | 5.2 | 0.00 | 0.00 | 0.00 | 30 | 1003.8 |
| 20260504031526 | 60 | 296 | 1.7 | 3.5 | 0.00 | 0.00 | 0.00 | 30 | 1003.6 |
| 20260504030005 | 63 | 322 | 0.0 | 0.9 | 0.00 | 0.00 | 0.00 | 20 | 1003.5 |
| 20260504024505 | 65 | 325 | 0.0 | 3.5 | 0.00 | 0.00 | 0.00 | 19 | 1003.4 |
| 20260504023051 | 67 | 103 | 3.5 | 6.1 | 0.00 | 0.00 | 0.00 | 18 | 1003.4 |
| 20260504021548 | 69 | 71 | 2.6 | 9.6 | 0.00 | 0.00 | 0.00 | 16 | 1003.2 |
| 20260504020024 | 70 | 63 | 6.1 | 9.6 | 0.00 | 0.00 | 0.00 | 16 | 1003.2 |
| 20260504014526 | 72 | 32 | 7.0 | 10.4 | 0.00 | 0.00 | 0.00 | 18 | 1003.1 |
| 20260504013003 | 73 | 277 | 4.3 | 7.8 | 0.00 | 0.00 | 0.00 | 19 | 1003.1 |
| 20260504011501 | 73 | 242 | 7.8 | 10.4 | 0.00 | 0.00 | 0.00 | 19 | 1003.2 |
| 20260504010048 | 72 | 235 | 6.1 | 8.7 | 0.00 | 0.00 | 0.00 | 20 | 1003.4 |
| 20260504004542 | 73 | 254 | 5.2 | 7.0 | 0.00 | 0.00 | 0.00 | 19 | 1003.4 |
| 20260504003022 | 73 | 274 | 2.6 | 7.0 | 0.00 | 0.00 | 0.00 | 18 | 1003.6 |
| 20260504001519 | 72 | 142 | 1.7 | 4.3 | 0.00 | 0.00 | 0.00 | 21 | 1003.8 |
| 20260504000104 | 72 | 143 | 2.6 | 7.0 | 0.00 | 0.00 | 0.00 | 21 | 1004.0 |
| 20260503234625 | 72 | 232 | 3.5 | 6.1 | 0.00 | 0.00 | 0.00 | 22 | 1004.2 |
| 20260503233046 | 72 | 217 | 5.2 | 7.8 | 0.00 | 0.00 | 0.00 | 22 | 1004.3 |
| 20260503231539 | 73 | 157 | 4.3 | 10.4 | 0.00 | 0.00 | 0.00 | 21 | 1004.2 |
| 20260503230052 | 72 | 213 | 6.1 | 9.6 | 0.00 | 0.00 | 0.00 | 22 | 1004.3 |
| 20260503224518 | 72 | 184 | 0.9 | 6.1 | 0.00 | 0.00 | 0.00 | 22 | 1004.4 |
| 20260503223117 | 73 | 74 | 7.0 | 11.3 | 0.00 | 0.00 | 0.00 | 22 | 1004.6 |
| 20260503221601 | 72 | 192 | 4.3 | 8.7 | 0.00 | 0.00 | 0.00 | 22 | 1004.9 |
| 20260503220055 | 72 | 117 | 3.5 | 7.8 | 0.00 | 0.00 | 0.00 | 22 | 1005.1 |
| 20260503214535 | 72 | 161 | 0.9 | 6.1 | 0.00 | 0.00 | 0.00 | 23 | 1005.4 |
| 20260503213033 | 71 | 101 | 2.6 | 9.6 | 0.00 | 0.00 | 0.00 | 24 | 1005.8 |
| 20260503211513 | 71 | 115 | 5.2 | 15.6 | 0.00 | 0.00 | 0.00 | 25 | 1006.2 |
| 20260503210011 | 71 | 70 | 1.7 | 9.6 | 0.00 | 0.00 | 0.00 | 26 | 1006.4 |
| 20260503204555 | 71 | 132 | 6.1 | 12.2 | 0.00 | 0.00 | 0.00 | 27 | 1006.6 |
| 20260503203056 | 70 | 311 | 2.6 | 6.1 | 0.00 | 0.00 | 0.00 | 26 | 1007.0 |
| 20260503201536 | 70 | 117 | 6.1 | 10.4 | 0.00 | 0.00 | 0.00 | 26 | 1007.1 |
| 20260503200034 | 70 | 44 | 4.3 | 9.6 | 0.00 | 0.00 | 0.00 | 27 | 1007.3 |
| 20260503194531 | 69 | 72 | 5.2 | 8.7 | 0.00 | 0.00 | 0.00 | 28 | 1007.5 |
| 20260503193030 | 69 | 106 | 2.6 | 9.6 | 0.00 | 0.00 | 0.00 | 28 | 1007.8 |
| 20260503191530 | 68 | 76 | 2.6 | 6.1 | 0.00 | 0.00 | 0.00 | 27 | 1008.0 |
| 20260503190025 | 68 | 121 | 1.7 | 7.8 | 0.00 | 0.00 | 0.00 | 27 | 1008.3 |
| 20260503184521 | 67 | 328 | 4.3 | 7.8 | 0.00 | 0.00 | 0.00 | 28 | 1008.5 |
| 20260503183019 | 66 | 134 | 2.6 | 10.4 | 0.00 | 0.00 | 0.00 | 31 | 1008.8 |
| 20260503181600 | 66 | 127 | 2.6 | 7.8 | 0.00 | 0.00 | 0.00 | 31 | 1008.9 |
| 20260503180106 | 66 | 78 | 5.2 | 7.8 | 0.00 | 0.00 | 0.00 | 31 | 1009.2 |
| 20260503174537 | 65 | 101 | 3.5 | 6.1 | 0.00 | 0.00 | 0.00 | 33 | 1009.4 |
| 20260503173038 | 64 | 24 | 2.6 | 7.0 | 0.00 | 0.00 | 0.00 | 36 | 1009.6 |
| 20260503171514 | 63 | 178 | 0.9 | 6.1 | 0.00 | 0.00 | 0.00 | 36 | 1009.8 |
| 20260503170112 | 63 | 182 | 1.7 | 3.5 | 0.00 | 0.00 | 0.00 | 37 | 1010.0 |